[Search] Search   [Recent Topics] Recent Topics   [Members]  Member Listing   [Groups] Back to home page 
Forum Index  
#  Username   Private Message   E-mail   From   Registration date   Messages 
2 Admin     16/03/2006 11:21:29 1
3 XTSC Administration     16/03/2006 14:49:56 224
4 Ă½The CowMaster!     16/03/2006 15:32:18 0
5 soccer_grrrrl     16/03/2006 15:36:43 4
6 The Administrator     16/03/2006 17:07:07 0
7 XTSC Fan     17/03/2006 14:53:30 22
8 rakesh     17/03/2006 19:58:17 12
9 nice person     20/03/2006 11:11:17 0
10 moo     20/03/2006 17:52:07 0
11 Bart     20/03/2006 19:32:54 1
12 scroyo     20/03/2006 21:16:09 0
13 Mollys Mom     21/03/2006 09:12:11 0
14 TanyaP     21/03/2006 10:15:50 0
15 IdRatherBeSkiing     21/03/2006 15:02:55 0
16 Edu     21/03/2006 18:25:14 0
17 olivia     22/03/2006 06:56:15 0
18 Dime     22/03/2006 11:05:11 3
19 TW     23/03/2006 10:39:26 0
20 Hemiptera     23/03/2006 10:39:59 0
21 cowcowcowcowcow     23/03/2006 10:42:37 1
22 Hoopstar     23/03/2006 10:44:33 0
23 Omus     23/03/2006 10:45:11 0
24 jlsweetlove     23/03/2006 11:43:13 0
25 MayankC     23/03/2006 13:17:31 0
26 XTSC Social Commitee     24/03/2006 10:06:50 0
27 PIMP     24/03/2006 16:20:23 0
28 soccerchick     24/03/2006 16:48:54 0
29 shopaholic     24/03/2006 18:57:01 0
30 DudeWheresDaBeach     25/03/2006 11:48:26 11
31 Samba     25/03/2006 17:57:56 28
32 Hooman   25/03/2006 22:21:48 0
33 Dave Smith     27/03/2006 10:30:02 0
34 Jim S     27/03/2006 21:12:11 0
35 SwissCheese     29/03/2006 16:47:30 3
36 Vlad     31/03/2006 09:22:09 0
37 mrvenezuela     01/04/2006 23:11:52 0
38 md     02/04/2006 09:48:38 0
39 Ginger     04/04/2006 08:32:24 2
40 connie     04/04/2006 09:10:26 0
41 rockifier     04/04/2006 10:21:31 0
42 cshulgan     05/04/2006 11:10:58 0
43 Cristina     05/04/2006 21:58:13 0
201 Wing Man     10/04/2006 15:05:35 1
202 bobbieeee     11/04/2006 20:01:38 0
203 gp     12/04/2006 17:31:56 0
204 gypsilan     12/04/2006 21:00:48 0
205 123456789     12/04/2006 21:20:28 0
206 vballlover     16/04/2006 22:50:54 0
207 CompuBoxe     17/04/2006 10:17:13 1
208 dina     17/04/2006 13:18:07 0
209 simonyu78     17/04/2006 21:24:47 0
210 trantsy     18/04/2006 14:23:03 0
211 mercedes     19/04/2006 00:46:02 1
212 khana     19/04/2006 13:22:00 0
213 jaycee     21/04/2006 11:41:34 2
214 JJJ     23/04/2006 17:21:39 2
215 GD     24/04/2006 14:46:19 0
216 Aleksa     24/04/2006 16:54:56 0
217 Annette     24/04/2006 18:55:42 0
218 Anthony     26/04/2006 12:08:47 6
219 RedSweaterBoy     27/04/2006 00:44:58 0
220 bishopsgaiters     27/04/2006 11:50:33 0
221 danabrou     27/04/2006 12:05:30 0
222 Portuguese Man Of War     28/04/2006 09:34:13 2
223 tempo     30/04/2006 03:41:03 0
224 katrina     01/05/2006 10:47:59 0
225 Edicson     01/05/2006 18:51:42 0
226 marlon     04/05/2006 18:49:49 0
227 soniiia     05/05/2006 13:33:49 1
228 Jam     05/05/2006 13:53:39 3
229 Damagecontrol     05/05/2006 16:20:27 6
230 Heather     08/05/2006 12:13:37 0
231 Koreena     08/05/2006 21:46:25 3
232 Scott     09/05/2006 08:38:06 7
235 ml03ts     09/05/2006 10:16:32 0
236 Fudor     09/05/2006 11:16:32 0
237 sg2006     09/05/2006 20:04:26 0
238 mkgiven     09/05/2006 22:18:22 0
239 Tallsocks     10/05/2006 13:42:47 0
240 Erica     11/05/2006 09:22:41 0
241 ladydi14     11/05/2006 17:01:09 0
242 Con     11/05/2006 18:15:49 0
243 cris     11/05/2006 20:34:54 0
244 mariothebutcher     15/05/2006 23:26:29 0
245 micbacala     17/05/2006 20:24:21 0
246 Diva     17/05/2006 22:33:41 0
247 j0hnnyo     25/05/2006 13:31:33 3
248 Shayns     26/05/2006 14:01:46 0
249 Mailman     27/05/2006 16:59:46 1
250 Rubco     30/05/2006 13:26:46 0
251 hopeless     30/05/2006 22:12:56 1
252 anonymous     30/05/2006 22:15:22 1
253 Gabby     30/05/2006 22:20:49 2
254 worldcup_prognosticator     30/05/2006 22:55:24 0
255 Da Scoop     31/05/2006 12:59:51 8
256 Jon     31/05/2006 14:54:56 0
257 buddy_major     31/05/2006 15:46:25 0
258 silverback     31/05/2006 15:50:47 0
259 JonathanEMartin     31/05/2006 16:01:06 0
260 kit     01/06/2006 14:15:44 6
261 Kristen     01/06/2006 17:09:34 0
262 Evil_Gabby     02/06/2006 00:53:35 2
263 Mark Fudor     02/06/2006 01:33:27 1
264 Nuno     02/06/2006 12:27:57 0
265 Matt Littlefield     02/06/2006 20:21:07 0
266 horazio     04/06/2006 14:41:38 0
267 wickedronnie     05/06/2006 15:36:37 0
268 bumbaROOSE     06/06/2006 18:05:15 0
269 ijamal     07/06/2006 13:17:32 0
270 Sonny     07/06/2006 16:20:03 0
271 lotsashots     08/06/2006 22:27:18 0
272 Stephen Parks     09/06/2006 08:00:26 9
273 sparrow     11/06/2006 21:19:44 0
274 Byron     12/06/2006 11:50:14 0
275 Ben_A     12/06/2006 15:17:13 0
276 ohgees     12/06/2006 19:29:26 0
277 gibobina     13/06/2006 00:01:42 0
278 sarawashington     13/06/2006 14:40:01 0
279 hellmann     14/06/2006 14:02:47 0
280 qball     14/06/2006 16:25:25 0
281 Dennis Shtemberg     15/06/2006 15:20:36 0
282 xango     16/06/2006 00:57:06 3
283 tsnpower     16/06/2006 08:33:01 0
284 SexGod     16/06/2006 18:38:23 0
285 acarranza     17/06/2006 21:56:30 3
286 aim     17/06/2006 23:27:00 0
287 gestay     19/06/2006 08:34:38 0
288 G     19/06/2006 11:45:50 0
289 eano     19/06/2006 15:29:07 7
290 mikey     20/06/2006 10:18:46 0
291 adriancl     20/06/2006 16:56:59 1
292 Bobby     21/06/2006 09:36:44 0
293 Papa     21/06/2006 12:05:21 0
294 patti     21/06/2006 12:14:14 0
295 Mark Samen     21/06/2006 12:22:22 3
296 Vasanth   21/06/2006 12:30:46 2
297 Hugo     21/06/2006 12:51:27 0
298 rpolci     21/06/2006 12:53:10 0
299 johnny785     21/06/2006 12:58:38 0
300 martsim     21/06/2006 13:10:09 0
301 ramos     21/06/2006 16:12:58 0
302 adia     21/06/2006 21:09:06 0
303 alphabit     21/06/2006 22:05:02 0
305 Marko Durbic     22/06/2006 09:14:27 0
306 onofrio     22/06/2006 13:27:05 0
307 Anthony Footballer     23/06/2006 22:14:48 0
401 Brodie     26/06/2006 23:06:23 0
402 Holly Westell     27/06/2006 12:21:12 0
403 blue_xii     28/06/2006 11:06:35 0
404 Ange     28/06/2006 13:16:38 0
405 Adjem     30/06/2006 01:41:26 0
406 Miroslav Klose     30/06/2006 15:21:51 0
407 harrisonandrea     06/07/2006 13:24:05 0
408 svilchez     06/07/2006 14:43:05 0
409 junglejim     07/07/2006 12:56:29 0
410 BA     07/07/2006 15:22:13 0
411 MeeSHak     07/07/2006 19:18:35 0
412 Jame11     10/07/2006 13:29:22 0
413 nlsanand     10/07/2006 15:38:05 2
414 eric     10/07/2006 17:50:08 0
415 Long     10/07/2006 21:50:03 1
416 mradamfox [Email] 11/07/2006 11:23:22 9
417 phredom_lost     11/07/2006 19:17:48 1
418 karl     11/07/2006 19:45:39 1
419 dwai     12/07/2006 11:21:44 0
420 Will Lam     12/07/2006 13:16:39 0
421 EtienneP     13/07/2006 13:56:30 0
422 edrique     15/07/2006 17:16:02 1
423 Saeed     15/07/2006 17:27:10 0
424 roymakaay     15/07/2006 18:16:17 0
425 ruthy     15/07/2006 18:20:29 0
426 David     15/07/2006 18:23:11 0
427 patio   17/07/2006 10:37:23 0
428 Tintin     17/07/2006 12:47:59 0
430 cristina_ferrara     17/07/2006 21:06:22 1
431 fa     18/07/2006 16:10:35 0
432 applejuice     18/07/2006 23:11:37 0
433 davmo     19/07/2006 11:51:03 1
434 Pamallama     19/07/2006 13:59:47 0
435 llatoure     20/07/2006 09:01:53 64
436 Marcus Aurelius     20/07/2006 13:56:59 0
437 IanV     21/07/2006 17:24:52 5
438 Scifo     24/07/2006 08:57:41 0
439 Streak17     25/07/2006 12:07:02 9
440 CharlieBrown     26/07/2006 14:43:07 1
441 visualeyes     26/07/2006 16:20:29 0
442 1coolj     28/07/2006 08:02:11 0
443 Natalz     28/07/2006 10:40:47 0
444 PHO     28/07/2006 16:50:00 0
445 VirginiaM     31/07/2006 10:15:28 0
446 Red Hot Captain     04/08/2006 12:36:41 0
601 radup     04/08/2006 20:57:54 0
602 Talant     08/08/2006 08:22:12 0
603 Sonny Nguyen     08/08/2006 17:33:46 0
604 krip     09/08/2006 15:29:21 0
605 IainJ     09/08/2006 15:39:08 10
606 vtorossian     10/08/2006 14:31:03 0
607 Michael Grentz     14/08/2006 11:32:01 0
608 queens49     14/08/2006 19:29:37 0
609 skill21     15/08/2006 09:57:39 0
610 Rob Munford     16/08/2006 08:51:53 3
611 nikipiki     17/08/2006 01:53:12 0
612 epadre     20/08/2006 15:37:36 0
613 CarpeDonut     21/08/2006 10:20:51 0
614 junglejojo     21/08/2006 16:28:14 0
615 nkassam     22/08/2006 11:59:51 0
616 Jean Carlo     23/08/2006 01:19:18 0
617 cornpop     23/08/2006 10:35:05 0
618 Witt     23/08/2006 11:26:34 0
619 Evan88     23/08/2006 22:52:18 0
620 Greg     23/08/2006 22:52:50 2
621 raywiecha     27/08/2006 18:56:44 0
622 chris als     28/08/2006 13:56:25 0
623 Jag_guar     28/08/2006 16:55:03 0
624 fbutara     29/08/2006 16:45:48 0
625 mbarr     30/08/2006 09:41:06 1
626 yabba     30/08/2006 11:15:50 0
627 Jonolimis     31/08/2006 20:56:59 0
628 Georgydd     01/09/2006 14:10:03 4
629 Wen     02/09/2006 21:48:31 0
630 Jonnyp123     03/09/2006 21:52:00 0
631 Darren     04/09/2006 00:02:29 2
632 Tals     04/09/2006 10:48:37 0
633 llijah     05/09/2006 15:26:14 1
634 jonnnyp123     05/09/2006 16:50:34 0
635 Little Rob     06/09/2006 23:39:48 0
636 michelle_two     07/09/2006 17:27:50 0
637 sul     07/09/2006 21:34:45 0
638 franchize     08/09/2006 10:44:24 0
639 kevindowse     09/09/2006 13:12:52 0
640 pvg     09/09/2006 16:04:29 0
641 Mavatar     11/09/2006 18:02:31 0
642 JonnyIreland     11/09/2006 23:26:06 0
643 Fast Eddie69x2     12/09/2006 04:53:07 0
644 StaceyB     12/09/2006 13:53:46 0
645 zoomzoom     12/09/2006 19:51:57 0
646 colin geddes     18/09/2006 09:38:37 0
647 kt8     18/09/2006 09:55:32 0
648 eva     18/09/2006 17:11:41 0
649 Cong     19/09/2006 09:20:16 0
650 Ultra     20/09/2006 01:28:16 0
651 Kaz     20/09/2006 15:41:27 0
652 dconium     21/09/2006 00:09:15 0
653 Bill     21/09/2006 12:14:34 1
654 diangiu     22/09/2006 14:56:35 0
801 Derek123     25/09/2006 19:07:13 0
802 Timothy     26/09/2006 14:01:28 0
803 FUSkeleton     26/09/2006 15:12:02 2
804 Sari     26/09/2006 17:50:35 0
805 Ollie     26/09/2006 19:14:15 1
806 wryt     27/09/2006 16:33:50 0
807 umistry     27/09/2006 17:08:17 0
808 hozalez     27/09/2006 18:22:24 0
809 Daniella     28/09/2006 07:57:25 1
810 eileen     28/09/2006 14:40:45 0
811 efraim     28/09/2006 18:34:59 0
812 jcallend     29/09/2006 23:27:50 0
813 Jenny     01/10/2006 15:16:05 0
814 iain     01/10/2006 18:03:34 1
815 Bily     02/10/2006 09:53:53 0
816 jinhwan     03/10/2006 08:00:16 0
817 ajh     03/10/2006 10:21:09 0
818 Eric M     04/10/2006 14:38:09 1
819 dubC     04/10/2006 19:21:37 0
820 jp     04/10/2006 19:51:20 0
821 Maldini     04/10/2006 23:43:06 0
822 mannro     10/10/2006 14:22:54 0
823 polar_bear     11/10/2006 08:16:57 0
824 meowwww     12/10/2006 17:10:03 0
825 faraz     12/10/2006 17:25:54 0
826 CC     13/10/2006 12:06:08 0
827 Heathita     13/10/2006 13:28:46 0
828 photoderek     13/10/2006 16:53:05 0
829 ricky     13/10/2006 17:59:00 0
830 Cannavaro     13/10/2006 18:19:10 0
831 rustys     16/10/2006 22:32:03 0
832 Neal     17/10/2006 13:30:54 0
833 steve0     17/10/2006 15:17:45 0
834 Jess     22/10/2006 11:39:29 0
835 Kenton     22/10/2006 18:29:05 0
1001 bfernando     23/10/2006 21:18:11 0
1002 Boogerman     27/10/2006 19:05:55 0
1003 JAK     31/10/2006 13:03:03 0
1004 alexstarr     04/11/2006 19:35:51 1
1005 wiztal     09/11/2006 12:28:03 0
1006 luis orantes     09/11/2006 13:19:17 0
1007 Coobo     09/11/2006 13:58:54 1
1008 Eridu     09/11/2006 18:10:39 2
1009 Danners     10/11/2006 11:13:01 0
1010 Hollehwood     10/11/2006 12:13:12 0
1011 Cabrita     14/11/2006 10:23:37 1
1012 sug     14/11/2006 12:44:15 0
1013 ZiZoom     14/11/2006 14:14:23 0
1014 Tae     14/11/2006 14:29:01 0
1015 highwind8     16/11/2006 12:28:12 0
1016 andrewh     18/11/2006 09:58:32 0
1017 micr0be     18/11/2006 10:24:32 1
1018 carlos     18/11/2006 10:37:34 0
1019 Art     20/11/2006 22:49:28 0
1020 Siddonia     22/11/2006 00:26:03 0
1021 Zmia     22/11/2006 11:44:10 0
1022 roopesh     22/11/2006 12:34:20 0
1023 Eimaj     22/11/2006 12:47:29 0
1024 RandomSanta     22/11/2006 22:37:57 8
1025 kenpet63     23/11/2006 11:58:12 0
1026 isaac     23/11/2006 21:31:02 0
1027 pork belly     27/11/2006 13:31:52 0
1028 naruto08     27/11/2006 23:04:18 2
1029 Pennycoa     29/11/2006 17:27:21 0
1030 cgjoker     30/11/2006 16:03:49 0
1031 Indoor soccer     04/12/2006 15:19:14 0
1032 kets     06/12/2006 15:27:33 0
1033 Poncho     06/12/2006 19:57:36 0
1034 Hoann     07/12/2006 22:19:30 0
1035 Vinnie6     08/12/2006 13:44:51 0
1036 kerin34     11/12/2006 11:30:51 0
1037 Tara     12/12/2006 09:10:13 0
1038 BoyWonder     20/12/2006 07:29:11 0
1039 Markymark     20/12/2006 14:54:19 0
1040 JP14     21/12/2006 15:19:03 0
1041 alexn     22/12/2006 08:59:05 0
1201 cpsouza     02/01/2007 12:18:02 0
1202 MMM05     03/01/2007 14:44:29 0
1203 mani     03/01/2007 18:26:54 0
1204 Lisa     03/01/2007 18:44:39 0
1205 Eddy915     04/01/2007 01:25:29 0
1206 Grey Galaxy     04/01/2007 16:19:41 2
1207 VHTA     05/01/2007 18:43:10 4
1208 sportychick     09/01/2007 15:04:17 0
1209 pablo     09/01/2007 21:16:27 1
1210 Rilke07     11/01/2007 22:46:43 0
1211 Dr J     12/01/2007 16:28:52 0
1212 whoodt     13/01/2007 09:56:59 0
1213 trogdor     15/01/2007 14:35:17 1
1214 Lewie     16/01/2007 15:19:15 0
1215 Jeevs     16/01/2007 22:52:41 0
1401 Francesco311     22/01/2007 01:43:53 0
1402 monkeywork     22/01/2007 15:58:22 0
1403 aleem     22/01/2007 17:49:11 0
1404 slam     22/01/2007 22:12:49 1
1405 kevkwan     23/01/2007 13:05:24 0
1406 PeterL     24/01/2007 13:29:01 0
1407 wkwil     25/01/2007 12:36:05 0
1408 bullet     29/01/2007 10:43:09 0
1409 Steven     29/01/2007 18:47:40 0
1410 Steve     29/01/2007 22:46:12 0
1411 Ming     30/01/2007 11:12:56 1
1412 bugenhagen     30/01/2007 11:51:01 1
1413 AV     30/01/2007 16:25:58 7
1414 Twisted     31/01/2007 15:05:04 0
1415 bugenhagen123     01/02/2007 00:09:46 0
1416 LisaRoberts     01/02/2007 23:32:57 0
1417 Hamoon     03/02/2007 12:35:04 0
1418 SarahFacini     04/02/2007 19:08:59 0
1419 guille     04/02/2007 20:37:36 0
1420 Saif     06/02/2007 14:20:10 0
1421 Re_Up_Eano     06/02/2007 19:06:11 0
1422 casinorulz     08/02/2007 08:04:27 0
1423 Hanna     09/02/2007 05:53:46 0
1424 cow     09/02/2007 13:20:10 0
1425 Itai     09/02/2007 16:37:35 1
1601 god is love     11/02/2007 09:11:48 0
1602 noah     12/02/2007 09:13:22 0
1603 tofoot     12/02/2007 13:43:32 0
1604 tomc     12/02/2007 22:52:55 0
1605 windy     13/02/2007 09:49:48 0
1606 neil     14/02/2007 21:20:11 0
1607 mark_e_mark     16/02/2007 13:13:18 0
1801 Rafal     17/02/2007 10:51:35 1
1802 Colin George     20/02/2007 09:19:24 0
1803 Nas     21/02/2007 13:13:54 3
1804 Lyndon File     23/02/2007 09:52:45 0
1805 Sdo     23/02/2007 22:53:21 0
1806 nassau     26/02/2007 07:53:44 0
1807 snoopy     26/02/2007 13:05:43 0
1808 melmira13     26/02/2007 17:43:24 0
1809 Ball Kicker     28/02/2007 11:10:47 0
1810 CKAST   28/02/2007 14:27:47 11
1811 Q     28/02/2007 15:57:07 0
1812 jeff     01/03/2007 15:47:17 0
1813 nick400     03/03/2007 21:46:59 0
1814 essamd   04/03/2007 22:50:03 1
1815 ColinS     04/03/2007 23:46:20 0
1816 smahaney69     05/03/2007 10:31:01 0
1817 nick4001     06/03/2007 12:12:20 0
1818 Trips McHash     07/03/2007 14:26:59 0
1819 Walkertexas69     07/03/2007 18:06:33 0
1820 garo     08/03/2007 21:02:53 1
1821 moriyuki     12/03/2007 12:00:54 0
1822 housekitten     12/03/2007 12:10:47 0
1823 Golnar     14/03/2007 15:49:27 1
1824 imready__     15/03/2007 13:36:54 0
1825 Meliss     15/03/2007 20:15:40 0
1826 KarenP   19/03/2007 19:08:53 0
1827 Becky Smit     22/03/2007 01:08:50 0
1828 rbc     26/03/2007 11:38:16 0
1829 rbcdexia     26/03/2007 12:34:37 0
1830 thedon     27/03/2007 18:31:30 0
1831 Vanessa W     28/03/2007 20:10:53 0
1832 Smudge     29/03/2007 18:02:47 0
1833 MP     30/03/2007 09:48:09 0
1834 pleventi     30/03/2007 21:31:01 0
1835 musters     03/04/2007 10:48:55 0
1836 JayBrown     05/04/2007 00:01:49 0
1837 jonnnyp12345     05/04/2007 16:12:42 0
1838 karitchka     08/04/2007 22:31:27 0
1839 devkit     08/04/2007 23:10:20 0
1840 saulrich     11/04/2007 14:59:28 0
1841 jongodo     12/04/2007 08:25:09 0
1842 A Mo     13/04/2007 09:21:33 0
1843 adnan     13/04/2007 22:40:49 10
1844 Tara Lightfoot     19/04/2007 17:29:49 0
1845 tofoot2     20/04/2007 14:16:43 0
1846 Liem     23/04/2007 13:07:05 0
1847 melongrind     23/04/2007 15:07:50 0
1848 peterchong     25/04/2007 20:22:53 0
1849 grinspy     26/04/2007 10:41:30 6
1850 mirz88     26/04/2007 13:54:39 0
1851 bugenL     26/04/2007 16:21:11 0
1852 Kimcity     26/04/2007 22:20:17 0
1853 jk_dsouza     29/04/2007 14:22:07 0
1854 cinemarie     29/04/2007 17:40:14 0
1855 bandido     30/04/2007 14:43:52 2
1856 Grace     02/05/2007 16:24:38 0
1857 mommamaxwell     02/05/2007 17:18:13 0
1858 greenmutiny     04/05/2007 20:59:46 0
1859 Lornestar     05/05/2007 18:18:03 0
1860 clairebronwyn     06/05/2007 11:27:10 0
1861 Jonaldinho     06/05/2007 19:25:43 1
1862 bonka     07/05/2007 07:20:36 0
1863 Vic     08/05/2007 09:47:53 0
1864 Virginia     08/05/2007 12:02:47 0
1865 Kacper     08/05/2007 12:39:22 0
1866 Adam Waese     08/05/2007 17:04:03 0
1867 rgbfsg   08/05/2007 21:42:34 1
1868 Feature     09/05/2007 13:19:05 0
1869 hudder     09/05/2007 14:17:37 0
1870 Ribery17   09/05/2007 19:21:23 2
1871 Giggsy     10/05/2007 15:50:42 0
1872 Ribery10     10/05/2007 18:30:38 0
1873 T_T     10/05/2007 22:20:16 0
1874 karnott     11/05/2007 12:54:54 0
1875 2grinspy     11/05/2007 16:02:41 0
1876 Wolfgang     12/05/2007 07:44:04 0
1877 JBelgrave     13/05/2007 21:03:36 0
1878 kma     14/05/2007 10:52:22 0
1879 E_rock     14/05/2007 13:21:40 0
1880 Jsan11     14/05/2007 13:26:39 1
1881 Carlos2007     14/05/2007 14:37:11 0
1882 joacim     14/05/2007 15:02:14 0
1883 NEdwards2007     15/05/2007 11:52:28 0
1884 BIGWIZ     16/05/2007 01:00:27 0
1885 Lily     17/05/2007 13:50:50 0
1886 null   17/05/2007 14:10:04 1
1887 Felipe Boff     17/05/2007 21:54:17 0
1888 chrischrischris     18/05/2007 08:07:59 0
1889 JPZ     18/05/2007 14:57:41 5
1890 Deruckus   19/05/2007 15:57:31 0
1892 gogrady     21/05/2007 13:03:38 0
1893 smaybee     21/05/2007 18:58:50 0
1894 justinewong     22/05/2007 12:34:36 0
1895 Mike D     22/05/2007 14:13:16 1
1896 Arwynn   22/05/2007 14:39:34 3
1897 SoccerFan     23/05/2007 11:39:04 0
1898 RD     24/05/2007 13:35:02 0
1899 Zulu     24/05/2007 15:32:09 0
1900 ilkerender     26/05/2007 14:37:37 0
1901 Ashley     27/05/2007 14:46:46 0
1902 jayfo     29/05/2007 17:15:39 0
1903 mrsamwong     29/05/2007 20:54:24 0
1904 joeback     30/05/2007 09:06:18 0
1905 Frank     30/05/2007 12:54:54 1
1906 andoryu     30/05/2007 16:00:20 0
1907 Tanante [Email] 30/05/2007 21:31:44 0
1908 amajetic     30/05/2007 22:47:26 0
1909 arashd     01/06/2007 23:23:59 0
1910 son_j     02/06/2007 10:36:56 1
1911 Rajesh     04/06/2007 13:06:57 0
1912 kn1     06/06/2007 15:26:12 0
1913 Francesco     11/06/2007 11:49:30 0
1914 Alfie     11/06/2007 12:21:08 0
1915 gestay1     11/06/2007 13:13:42 0
1916 elevateme     11/06/2007 14:51:13 0
1917 pdpablo     12/06/2007 14:43:58 0
1918 Chris1     12/06/2007 18:43:43 0
1919 slhamelin     13/06/2007 09:20:44 0
1920 Gerrard FC     14/06/2007 17:16:17 0
1921 mook     15/06/2007 11:08:34 0
1922 rudeboy     15/06/2007 15:23:18 0
1923 Gooner     20/06/2007 10:58:01 0
1924 atrack30     20/06/2007 16:16:01 0
1925 Dominator     20/06/2007 17:57:15 0
1926 disbelief     20/06/2007 19:34:21 0
1927 dipotb     20/06/2007 20:33:09 0
1928 king andall     21/06/2007 11:04:57 0
1929 Trevor     21/06/2007 11:15:02 0
1930 cagman_yilmaz     22/06/2007 15:15:07 1
1931 Karen     25/06/2007 19:53:02 0
1932 Jesse James     26/06/2007 09:54:46 0
1933 volker     26/06/2007 17:07:35 0
1934 Gonzo [Email] 26/06/2007 20:58:31 0
1935 bwilliamp     28/06/2007 00:10:38 0
1936 Amazon chick     29/06/2007 11:54:58 0
1937 stewart     30/06/2007 19:03:46 0
1938 glenn     02/07/2007 18:41:58 0
1939 n8smit     03/07/2007 14:41:22 0
1940 LQuanz     03/07/2007 22:03:44 0
1941 ren     04/07/2007 13:30:19 0
1942 Lornestar2     05/07/2007 11:13:38 0
1943 poolie1     05/07/2007 15:49:40 0
1944 bdking2     08/07/2007 01:29:33 1
1945 RJ     09/07/2007 11:41:00 0
1946 nuvees     10/07/2007 11:28:42 1
1947 max     10/07/2007 16:29:32 0
1948 anitaL     11/07/2007 09:53:01 0
1949 garby16     11/07/2007 20:10:31 0
1950 jonathan     12/07/2007 12:26:45 0
1951 abc123     12/07/2007 15:16:51 0
1952 jethrod     12/07/2007 23:38:48 0
1953 Dizoran     13/07/2007 13:15:43 0
1954 Tim Lewis     15/07/2007 08:17:05 1
1955 wlok83     15/07/2007 21:40:11 2
1956 winnie     16/07/2007 09:38:07 0
1957 Portuguese Don     16/07/2007 16:49:50 0
1958 Strathroy     19/07/2007 10:16:31 0
1959 Jeffrey Banyasz     19/07/2007 22:05:50 0
1960 IvanB     21/07/2007 22:24:55 0
1961 Elias     23/07/2007 11:35:32 0
1962 columbo     24/07/2007 13:17:12 0
1963 Jacqueline     24/07/2007 16:36:12 0
1964 Arman     24/07/2007 16:50:19 1
1965 Jay H     24/07/2007 17:01:39 0
1966 Josh G     25/07/2007 09:44:56 0
1967 landri     25/07/2007 11:55:23 0
1968 rkleinec     25/07/2007 15:29:23 0
1969 MarkMark     26/07/2007 11:10:24 0
1970 Just     26/07/2007 11:30:04 0
1971 Phillips9     27/07/2007 05:15:31 0
1972 stefanie_176     27/07/2007 05:16:53 0
1973 ITALIA_     27/07/2007 22:50:23 0
1974 Leonardo     30/07/2007 11:55:18 0
1975 Rick     30/07/2007 16:54:48 0
1976 TCS 14     31/07/2007 15:23:12 0
1977 acansino     01/08/2007 23:32:25 0
1978 flambe     02/08/2007 12:07:15 4
1979 Rob Cerjanec     06/08/2007 18:17:35 0
1980 hoyin     07/08/2007 11:01:28 0
1981 jpcopeland     07/08/2007 12:47:25 0
1982 Nacho     07/08/2007 15:09:57 0
1984 Matthewzy     08/08/2007 17:07:41 0
1985 Wynton     08/08/2007 17:57:22 0
1986 Amir     09/08/2007 10:41:58 0
1987 soulsearch     09/08/2007 15:38:29 4
1988 Homestar_Runner     09/08/2007 18:49:23 0
1989 sna     09/08/2007 23:49:41 0
1990 Raziel     10/08/2007 14:10:37 0
1991 elye     10/08/2007 15:40:57 0
1992 Hafa     12/08/2007 11:11:50 0
1993 Alistair Tulloch     13/08/2007 13:34:01 0
1994 ronaldo922     16/08/2007 05:06:44 0
1995 Justin     19/08/2007 11:23:03 0
1996 roxylinz     19/08/2007 12:18:33 0
1997 The Ball Breakerz     19/08/2007 23:15:11 7
1998 dipootse     20/08/2007 09:51:43 1
1999 daniels     20/08/2007 14:41:15 0
2000 IanH     20/08/2007 17:20:50 0
2001 Foot Soldiers     20/08/2007 22:35:18 0
2002 DeshzUp     21/08/2007 09:38:12 0
2003 smooth888     23/08/2007 15:20:44 0
2004 Bryn     23/08/2007 19:37:57 0
2005 _pd_     24/08/2007 13:59:43 0
2006 danae     24/08/2007 14:47:52 0
2007 morna     25/08/2007 14:19:03 0
2008 derekk     26/08/2007 09:09:05 0
2009 cbellos     27/08/2007 15:29:12 0
2010 79mark     28/08/2007 00:45:31 0
2011 callmeishmael     28/08/2007 13:05:45 0
2012 munir     28/08/2007 14:23:08 0
2013 ashley_evans99     28/08/2007 18:48:31 0
2014 arazoom     28/08/2007 22:58:52 0
2015 Nathan_Cole     29/08/2007 08:15:31 0
2016 McG     29/08/2007 12:19:08 0
2017 perspecticus     29/08/2007 14:31:03 0
2018 Maximiliano     30/08/2007 20:19:46 0
2019 Deirdre_27   04/09/2007 08:18:45 4
2020 Chris Pittard     04/09/2007 16:13:16 0
2021 letitzia     04/09/2007 22:09:53 0
2022 Shirley     04/09/2007 22:12:27 0
2023 Axsium United     05/09/2007 14:21:59 0
2024 Vicks     05/09/2007 17:22:07 4
2025 jamesalafriz     06/09/2007 09:41:20 4
2026 Cornel   06/09/2007 09:44:24 2
2027 jasong     10/09/2007 10:13:24 0
2028 phronimadis     10/09/2007 11:30:36 0
2029 jgrach     10/09/2007 12:51:18 0
2030 Double_E     10/09/2007 14:12:15 0
2031 neilojeilo     10/09/2007 16:49:33 1
2032 afshin     10/09/2007 17:44:36 0
2033 mafiaprincess     11/09/2007 13:47:07 0
2034 Jason13     13/09/2007 11:40:00 0
2035 flygirly     13/09/2007 22:13:09 0
2036 jgutierrez     14/09/2007 13:54:11 0
2037 DHummel     14/09/2007 18:07:57 0
2038 jessh     14/09/2007 18:47:37 0
2039 polishdz     15/09/2007 08:17:54 0
2040 Jose     16/09/2007 08:56:10 0
2041 Rye3181     17/09/2007 22:04:57 0
2042 jack   18/09/2007 08:03:29 0
2043 DamanLeung     18/09/2007 15:24:20 0
2044 brettlyons     18/09/2007 22:11:00 0
2045 alexk     19/09/2007 19:38:04 0
2046 reginacho     20/09/2007 08:57:49 0
2047 Toby     20/09/2007 10:18:51 0
2048 Aaron     20/09/2007 10:58:49 2
2049 jon voss     21/09/2007 13:12:47 0
2050 raffie11     21/09/2007 13:54:00 1
2051 JiLLy     21/09/2007 19:02:01 0
2052 PaulaQ     24/09/2007 12:15:44 0
2053 Christinedank     24/09/2007 14:44:14 0
2054 mission 1     24/09/2007 15:45:19 0
2055 Erin     24/09/2007 22:41:22 0
2056 s3lam     25/09/2007 09:24:36 0
2057 JamesN     25/09/2007 09:55:02 0
2058 drowninginair     25/09/2007 10:04:59 0
2059 Elma     25/09/2007 11:59:21 3
2060 Sarah2323     26/09/2007 11:40:35 0
2061 CarrieJoelle     27/09/2007 07:49:11 3
2062 Keith Mills     27/09/2007 11:11:22 0
2063 Chadwick Von Finklestein     27/09/2007 18:19:51 0
2064 ncheng99     28/09/2007 14:00:25 0
2065 rindobh     01/10/2007 22:25:18 0
2066 jimw     02/10/2007 11:17:58 0
2067 Fatima     03/10/2007 12:53:39 0
2068 Jenia     04/10/2007 17:04:09 0
2069 blonde_angel183     06/10/2007 23:35:30 0
2070 TimL     09/10/2007 10:45:12 0
2071 Ferg0     09/10/2007 15:00:33 0
2072 crasy     14/10/2007 00:43:36 0
2073 onradar     16/10/2007 10:43:20 0
2074 sparklingraspberryyum     16/10/2007 11:37:12 0
2075 Volleyball Kevin     16/10/2007 11:51:01 14
2076 Anahita     16/10/2007 12:53:13 0
2077 rrrhhh     16/10/2007 14:59:14 0
2078 jin     18/10/2007 19:23:00 0
2079 Shawn     19/10/2007 15:27:45 0
2080 dmn     19/10/2007 23:22:07 0
2081 ministerTEE     20/10/2007 14:51:11 0
2082 col     29/10/2007 17:05:38 2
2083 Tom     01/11/2007 06:30:33 3
2084 suzieq_18     01/11/2007 10:27:43 0
2085 Jackpot     01/11/2007 13:35:14 0
2086 Dinny     01/11/2007 14:34:24 0
2087 cebolla     02/11/2007 23:17:01 0
2088 Michelle     07/11/2007 17:13:49 0
2089 DirkDiggler     13/11/2007 11:17:14 1
2090 hydrophantom     14/11/2007 01:13:26 1
2091 Hobo     14/11/2007 15:13:21 0
2092 Bastard     15/11/2007 14:31:05 0
2093 LJ     16/11/2007 09:39:46 0
2094 rob     16/11/2007 13:45:34 0
2095 andrewmc73     16/11/2007 14:51:42 0
2096 dlogunz     20/11/2007 14:14:10 1
2097 mehmehran     22/11/2007 12:58:41 0
2098 byauch     26/11/2007 15:52:47 0
2099 rookiepat     26/11/2007 18:21:28 0
2100 old_port     28/11/2007 16:42:57 0
2101 risque666     30/11/2007 09:25:48 0
2102 tcaldwell     30/11/2007 14:22:12 1
2103 teachy2006     02/12/2007 22:30:05 0
2104 Dougie     04/12/2007 10:25:02 0
2105 Numee     05/12/2007 15:30:53 0
2106 Rebecca     07/12/2007 12:32:38 1
2107 Roxy     10/12/2007 17:26:13 0
2108 me     11/12/2007 12:49:02 0
2109 nh     17/12/2007 01:46:01 0
2110 melq     17/12/2007 21:49:06 0
2111 Hollywood     21/12/2007 13:41:04 0
2112 Hamidreza   27/12/2007 13:29:56 0
2113 game     04/01/2008 04:17:28 0
2114 JubJub     05/01/2008 16:30:18 0
2115 Neda     07/01/2008 11:13:34 0
2117 miss muppet     07/01/2008 12:04:12 0
2118 Arich     08/01/2008 14:26:54 0
2121 Tasha Q     09/01/2008 15:17:53 0
2122 LGil     11/01/2008 20:34:34 0
2123 kazey     15/01/2008 10:37:23 0
2124 Sean S     16/01/2008 09:52:56 0
2125 JuicySauce     16/01/2008 17:28:32 0
2126 Alpha9er     17/01/2008 15:18:06 1
2127 tomwa     18/01/2008 14:46:26 0
2128 deebs     18/01/2008 15:14:19 0
2129 Faruk     19/01/2008 14:52:09 0
2130 Dmitri     20/01/2008 12:39:44 0
2131 jruston     20/01/2008 20:59:18 0
2132 samurai     20/01/2008 21:41:53 0
2133 Sway     22/01/2008 09:41:20 0
2134 srdjan     22/01/2008 13:09:15 0
2135 roby     26/01/2008 15:09:44 0
2136 carlosmpt     28/01/2008 16:15:31 0
2137 Maxwell_London     30/01/2008 15:04:57 0
2138 Nabeel     01/02/2008 08:44:59 0
2139 marco_ca     04/02/2008 11:57:56 0
2140 Baristuta     04/02/2008 22:55:29 2
2141 mikerpool     06/02/2008 15:08:44 0
2142 Kathleen Clough     06/02/2008 15:33:46 0
2143 cardiac     06/02/2008 17:15:30 0
2144 becca     06/02/2008 19:41:40 0
2145 Rog     09/02/2008 11:19:58 0
2146 jwong     10/02/2008 18:56:12 0
2147 Twix     11/02/2008 13:17:19 0
2148 zach     13/02/2008 22:02:56 0
2149 Clare     15/02/2008 15:23:13 0
2150 Cosenzza     17/02/2008 11:40:40 0
2151 keiths     18/02/2008 15:39:19 1
2152 Sagar321     19/02/2008 13:49:44 0
2153 Wilchann     20/02/2008 13:06:52 0
2154 Elijah     20/02/2008 15:23:13 0
2155 Bruce     20/02/2008 22:23:13 0
2156 ed     22/02/2008 03:55:21 0
2158 alfaan     25/02/2008 16:14:03 0
2159 KIKIN Avila Contreras     26/02/2008 14:35:50 0
2160 Francotyp     01/03/2008 19:06:22 0
2161 Zidane     07/03/2008 12:47:29 2
2162 melcap     07/03/2008 18:02:03 0
2163 JustinJennings     12/03/2008 11:01:20 0
2164 ben s     12/03/2008 16:13:44 0
2165 jaehong_84     14/03/2008 19:16:25 0
2166 Galaxy Grey     21/03/2008 01:14:21 5
2167 Gibber     25/03/2008 16:17:43 0
2168 Danny     25/03/2008 18:04:22 0
2169 wilsonnc     26/03/2008 00:12:32 0
2170 Susy     27/03/2008 10:08:17 1
2171 Laurene   27/03/2008 22:23:59 0
2172 Jill     30/03/2008 18:19:36 0
2173 Cynthia     31/03/2008 14:04:41 0
2174 Jacquiwilkinson     01/04/2008 14:44:31 0
2175 test2     01/04/2008 15:41:54 0
2176 chowsers     02/04/2008 09:53:43 0
2177 Liemer     02/04/2008 12:46:46 0
2178 SusyG     03/04/2008 15:40:44 3
2179 detech     03/04/2008 23:33:31 0
2180 SB     08/04/2008 09:34:52 0
2181 tmarci     08/04/2008 14:40:22 0
2182 smgaya     08/04/2008 20:38:21 0
2183 kyath     09/04/2008 14:24:52 0
2184 zelali     10/04/2008 11:45:12 7
2185 fdeguchi     11/04/2008 09:56:43 0
2186 vomass     17/04/2008 10:29:24 0
2187 Guy     17/04/2008 15:27:14 0
2188 Mireille Cheung     17/04/2008 17:28:26 0
2189 Paco     20/04/2008 00:56:40 0
2190 ChrisPiper     20/04/2008 12:46:11 0
2191 g3clarke     20/04/2008 19:58:57 2
2192 Jen_T     21/04/2008 06:12:54 0
2194 Footbag24     21/04/2008 19:34:36 0
2195 Os     22/04/2008 19:11:55 0
2196 baggio1     22/04/2008 23:12:45 0
2197 StephenK     23/04/2008 01:19:20 0
2198 Azrael     23/04/2008 13:26:59 0
2199 Michele     23/04/2008 22:21:24 0
2200 Columbus     24/04/2008 14:39:47 0
2201 caitlinc     24/04/2008 21:26:14 0
2202 Dickie     27/04/2008 12:32:16 2
2203 Ewan Dunderdale     28/04/2008 12:33:33 1
2204 rah97     29/04/2008 09:17:08 5
2205 AT     29/04/2008 23:51:41 0
2206 Thrilos9     29/04/2008 23:57:58 0
2207 lindyloo     30/04/2008 04:03:11 0
2208 Wasay     30/04/2008 21:43:03 0
2209 jenjens     01/05/2008 09:29:09 0
2210 amberh     01/05/2008 15:46:36 0
2211 myles o     02/05/2008 09:10:11 0
2212 ladydi     03/05/2008 09:02:58 0
2213 amontoro     03/05/2008 14:27:00 0
2214 jbeaulieu     05/05/2008 08:49:25 0
2215 Kristin     05/05/2008 08:50:47 0
2216 Tim Lidster     06/05/2008 18:55:59 1
2217 Kath     06/05/2008 21:34:40 0
2218 Dawes     07/05/2008 00:58:38 0
2219 laisie     07/05/2008 10:30:07 0
2220 Lynn Correia     07/05/2008 15:09:57 0
2221 PK     08/05/2008 11:41:18 0
2223 Petrit     08/05/2008 15:07:20 0
2224 JenElliott     08/05/2008 21:00:09 0
2225 nataliae     09/05/2008 09:51:24 0
2226 sdm     09/05/2008 11:34:16 0
2227 BSWS     09/05/2008 17:37:24 0
2228 Dave_099     11/05/2008 21:48:13 0
2229 Dean Reid     12/05/2008 06:38:51 0
2230 Exizm     12/05/2008 09:13:01 0
2231 KYoung     12/05/2008 09:41:03 0
2232 Power     12/05/2008 10:47:45 0
2233 rmaturana     12/05/2008 11:03:30 0
2234 tammydang5   12/05/2008 11:52:32 1
2236 FCZ     12/05/2008 12:45:24 0
2237 ManU10     12/05/2008 12:56:55 0
2238 kwagar     12/05/2008 16:58:51 0
2239 dicky9042     12/05/2008 22:33:55 0
2240 Jason de Jong     13/05/2008 10:45:28 0
2241 aasgarali     13/05/2008 11:25:00 0
2242 vasgarali     13/05/2008 11:53:43 0
2243 jro     13/05/2008 12:54:35 0
2244 tashko     14/05/2008 08:50:55 0
2245 Stephanie     14/05/2008 14:55:55 0
2246 ramir1a1     15/05/2008 12:16:59 0
2247 bparousis     16/05/2008 12:32:16 0
2248 123     19/05/2008 00:29:47 1
2249 jcardinale     19/05/2008 14:37:45 0
2250 C     19/05/2008 23:50:23 0
2251 klembot     20/05/2008 10:18:51 0
2252 Linkness     20/05/2008 10:35:24 0
2253 Janine     22/05/2008 09:43:42 0
2254 KevinSmith     22/05/2008 13:47:50 0
2255 Fabio     23/05/2008 14:31:29 3
2256 Davecc     24/05/2008 15:29:48 0
2257 db     24/05/2008 21:42:10 0
2258 bradbally     26/05/2008 09:26:53 0
2259 ed11ed     27/05/2008 14:38:57 3
2260 mike C     27/05/2008 17:58:59 0
2261 jayzen     27/05/2008 21:52:06 0
2262 CamSteed [Email] 28/05/2008 11:47:31 0
2263 football     28/05/2008 16:22:13 0
2264 keithm     28/05/2008 16:57:14 1
2265 arjun392     30/05/2008 17:32:24 0
2266 minivic     01/06/2008 20:58:07 0
2267 ruthskiba     04/06/2008 21:47:58 5
2268 noyqdave     06/06/2008 07:22:31 0
2269 Ariel     10/06/2008 10:54:11 0
2271 haycorbett     11/06/2008 18:08:52 0
2272 jaystarr     16/06/2008 09:38:15 0
2273 sbencak     17/06/2008 14:26:17 0
2274 Quade     18/06/2008 11:14:51 0
2275 peterchan     18/06/2008 13:19:24 0
2276 Laurie     19/06/2008 10:31:29 0
2277 JME     20/06/2008 08:35:02 0
2278 Sasha     21/06/2008 11:57:32 0
2279 ndell     23/06/2008 11:54:30 0
2280 skott     23/06/2008 13:04:19 0
2281 Manveer     23/06/2008 18:26:50 1
2282 Bender like Hender     24/06/2008 13:40:29 0
2283 Georges     24/06/2008 16:41:48 2
2284 ClaireRocks     25/06/2008 08:30:22 0
2285 tpv72     25/06/2008 15:43:42 2
2286 LindsaySC     26/06/2008 12:32:41 0
2287 Aranya     26/06/2008 12:40:47 0
2288 Do not know     26/06/2008 13:16:35 0
2289 LiverpoolFC     29/06/2008 21:51:29 1
2290 baldeshz     30/06/2008 09:55:44 0
2291 Davec     01/07/2008 10:59:45 1
2292 Rhonda   01/07/2008 18:19:01 1
2293 Garcia     01/07/2008 20:06:59 0
2294 AC     02/07/2008 12:11:12 0
2295 Aziz Sam     02/07/2008 22:05:43 0
2297 GBSA     04/07/2008 11:25:52 1
2298 sxc531     04/07/2008 14:14:29 0
2299 Olena     05/07/2008 09:15:37 0
2300 cindyli     05/07/2008 11:36:21 0
2301 abhunia     07/07/2008 11:41:36 2
2302 Dphillips     07/07/2008 12:44:41 0
2303 HJ     07/07/2008 15:58:04 0
2304 cstella     14/07/2008 09:27:19 0
2305 pamelaboyce     14/07/2008 12:46:02 2
2306 DjKing2     14/07/2008 14:35:08 0
2307 tamar     15/07/2008 12:49:23 0
2308 skyfusion     15/07/2008 19:31:50 0
2309 k123     16/07/2008 12:21:53 0
2310 basho     18/07/2008 15:27:47 0
2311 soccer_gal_85     21/07/2008 11:33:55 0
2312 brooklyn     21/07/2008 18:09:09 0
2313 vietmonk     27/07/2008 21:56:01 0
2314 dkar     29/07/2008 01:38:43 0
2315 Ilia [Email] 31/07/2008 20:20:17 0
2316 jb831     05/08/2008 15:08:35 2
2317 timmy032     06/08/2008 15:43:12 0
2318 Clara     09/08/2008 21:49:32 0
2319 Mleahy     13/08/2008 13:08:30 0
2320 dspinoso     13/08/2008 14:10:05 0
2321 marvin     14/08/2008 11:17:47 0
2322 geodd     14/08/2008 12:14:17 10
2323 Catenacci     16/08/2008 13:09:44 0
2324 Mike Goodings     18/08/2008 00:13:40 0
2325 charcampbell     18/08/2008 09:11:35 0
2326 Stefan     18/08/2008 10:42:59 0
2327 paulienomial     18/08/2008 15:04:18 0
2328 buckley17     19/08/2008 16:15:02 2
2329 jasonkenney     25/08/2008 11:19:22 0
2330 DianaKasovski     25/08/2008 12:37:47 0
2331 mi55l33   25/08/2008 19:24:07 0
2332 maguilar     28/08/2008 22:37:20 0
2333 henrytran     29/08/2008 00:54:11 0
2334 extreme toronto sports club     31/08/2008 18:11:03 0
2335 TGC     31/08/2008 18:45:00 0
2336 dcheriya     01/09/2008 15:44:58 0
2337 lhwang     03/09/2008 07:51:38 0
2338 Liban     03/09/2008 09:55:39 2
2339 antsmarchin     06/09/2008 20:08:26 0
2340 almartino     07/09/2008 10:45:52 0
2341 Christine   07/09/2008 18:19:25 4
2342 JWC     08/09/2008 09:30:40 0
2343 astrareyes     08/09/2008 10:47:22 0
2344 Doron   10/09/2008 09:21:42 0
2345 xieu     10/09/2008 09:55:49 0
2346 tira     10/09/2008 15:08:12 0
2347 Duane Lovelace     10/09/2008 15:48:11 0
2348 stoked     12/09/2008 12:01:54 0
2349 Milena     13/09/2008 13:35:29 0
2350 djlkoo     14/09/2008 18:19:37 0
2351 Alex Pasta     14/09/2008 19:35:00 0
2352 sny711     14/09/2008 19:53:29 0
2353 Luis     15/09/2008 15:31:49 0
2354 Ken     15/09/2008 16:19:10 0
2355 ataylor529     15/09/2008 18:48:57 0
2356 Matty     16/09/2008 09:27:39 0
2357 sebastian     17/09/2008 01:23:49 0
2359 Richard     17/09/2008 13:29:59 16
2360 stylegal     17/09/2008 14:31:02 0
2361 kenneth Noisewater     18/09/2008 11:18:30 0
2362 glitterpixie33     18/09/2008 12:54:22 0
2363 davidau     19/09/2008 01:05:28 0
2364 leeanne     19/09/2008 09:25:34 0
2365 crazycalabrese     19/09/2008 10:49:43 0
2366 gabechan     19/09/2008 13:09:45 0
2367 Jay88     20/09/2008 15:24:07 0
2369 spartan_10     21/09/2008 23:52:40 0
2370 brianm21     22/09/2008 23:15:30 0
2371 rocket987     23/09/2008 10:08:28 0
2372 Dave     25/09/2008 09:44:18 0
2373 fatalfirez     25/09/2008 17:31:42 0
2374 skykop74     27/09/2008 13:53:52 0
2375 agill     28/09/2008 08:01:39 0
2376 alexxx     29/09/2008 11:05:19 0
2377 vivacolombia     29/09/2008 14:24:15 0
2378 indoor coed soccer     29/09/2008 16:57:54 0
2379 daniel_i     29/09/2008 17:15:13 0
2380 dtsao     29/09/2008 23:35:08 14
2381 tdl     30/09/2008 09:39:00 0
2382 hweff     01/10/2008 15:29:56 0
2383 steve14     02/10/2008 16:51:28 2
2384 JethroDethro     02/10/2008 21:09:27 0
2385 Shena     05/10/2008 00:24:11 0
2386 sa_zh     06/10/2008 01:48:30 0
2387 Alvin Yip     07/10/2008 15:39:39 0
2388 eye2eye     14/10/2008 12:04:05 1
2389 Nicole     15/10/2008 23:27:10 0
2390 Kevos     21/10/2008 13:01:42 0
2391 AJ     22/10/2008 16:47:35 0
2392 lemmings     29/10/2008 10:02:51 1
2393 bob     29/10/2008 23:09:22 0
2394 sashka     30/10/2008 21:26:33 0
2395 christina     31/10/2008 00:51:19 0
2396 The Moose     31/10/2008 14:47:40 0
2398 ben78     04/11/2008 15:02:41 0
2399 koodo     05/11/2008 11:36:02 2
2400 ridler9 [Email] 05/11/2008 15:58:33 4
2401 jsokic     06/11/2008 17:40:44 0
2402 Lorenzo     06/11/2008 23:18:31 4
2403 MacL     10/11/2008 15:19:41 0
2404 AnnaM     10/11/2008 16:06:51 0
2405 Katie     10/11/2008 18:21:46 0
2406 hellref     11/11/2008 13:17:02 3
2407 Simon     12/11/2008 15:09:52 0
2408 hailey23     13/11/2008 10:01:40 0
2409 cgreco     13/11/2008 10:39:46 0
2410 kjay1985     13/11/2008 12:39:34 0
2411 DIRT SQUIRREL     13/11/2008 21:33:04 0
2412 ALI     16/11/2008 14:09:32 0
2413 Fjsoulja     17/11/2008 12:59:47 0
2415 NEdwards     19/11/2008 16:19:10 1
2416 Kata     21/11/2008 14:14:07 0
2417 Mickey     21/11/2008 16:46:07 0
2418 mdigs     24/11/2008 00:21:56 0
2419 Talosi     26/11/2008 00:33:23 0
2420 JayS     26/11/2008 20:17:39 0
2421 gmngan     27/11/2008 19:12:35 0
2422 andresc84     29/11/2008 19:12:32 0
2423 Nodster     01/12/2008 12:48:44 0
2424 K Mo     04/12/2008 21:28:17 0
2425 bmo     05/12/2008 11:51:49 0
2426 Marcus Daniels     06/12/2008 17:07:32 0
2427 Hong _Soccer     08/12/2008 15:32:06 0
2428 Nick Van Exel     08/12/2008 16:55:43 0
2429 ArtPisanski     11/12/2008 16:00:41 0
2430 number9   12/12/2008 14:43:01 0
2431 murphyhfx     14/12/2008 13:02:59 0
2432 Alexia     15/12/2008 10:07:27 0
2433 aliciab     16/12/2008 12:37:07 0
2434 Brooklyn081     17/12/2008 14:41:12 0
2435 Meridian     18/12/2008 00:09:43 0
2436 dimovski     19/12/2008 12:51:55 0
2437 hilmisener     19/12/2008 15:22:41 0
2438 ioncache     19/12/2008 19:20:13 0
2439 Knik     21/12/2008 15:19:21 0
2440 pir2     23/12/2008 17:51:18 1
2441 Firestarter     24/12/2008 18:33:39 0
2442 Mu     29/12/2008 15:28:57 0
2443 pg3     05/01/2009 13:47:07 0
2444 wlao     05/01/2009 15:47:27 0
2445 monte     06/01/2009 11:03:29 4
2446 Chaly1026     06/01/2009 13:49:57 0
2447 andrew_lam     07/01/2009 16:15:55 0
2448 Odia14     08/01/2009 10:47:55 0
2449 jsavic     09/01/2009 11:38:55 0
2450 MaryEllen     09/01/2009 20:18:51 0
2451 Earl Jones     10/01/2009 17:40:15 0
2453 aries_girl75     12/01/2009 11:55:28 0
2454 A Black     12/01/2009 14:37:01 0
2455 scywong   12/01/2009 22:18:00 0
2456 Fash     13/01/2009 13:33:13 0
2457 alasdair     13/01/2009 23:59:35 0
2458 jax_6     14/01/2009 11:46:30 1
2459 ak1642     15/01/2009 12:40:04 0
2460 Richie     15/01/2009 14:53:58 1
2461 ndiniwacho     15/01/2009 17:01:51 0
2462 Desi C     19/01/2009 11:08:09 0
2463 Baller     19/01/2009 11:46:29 0
2464 Robin     19/01/2009 16:25:35 0
2465 Belle     19/01/2009 20:40:33 0
2466 cbinc     19/01/2009 20:55:47 0
2467 chrisgill     20/01/2009 14:05:25 0
2468 clynn_h     21/01/2009 15:33:26 0
2469 allyhay     22/01/2009 07:27:56 0
2470 Nuala     22/01/2009 08:18:47 0
2471 alon318     22/01/2009 12:11:16 0
2472 Dimonterr     22/01/2009 12:40:59 0
2473 nadia     24/01/2009 17:40:14 0
2474 leafsfan     25/01/2009 09:20:23 0
2475 kayache     25/01/2009 14:53:24 0
2476 rveli     27/01/2009 09:54:24 0
2477 NikoRa     27/01/2009 14:31:45 0
2478 kc     28/01/2009 11:53:31 0
2479 Gnagno     28/01/2009 15:33:43 0
2480 DaveZ     28/01/2009 16:01:52 0
2481 djmaskillz     28/01/2009 23:58:26 0
2482 jones     29/01/2009 08:57:51 0
2483 dkugan     29/01/2009 13:25:19 0
2484 Dereck     29/01/2009 23:37:15 0
2485 Fitz     30/01/2009 10:45:06 0
2486 richcoward     30/01/2009 20:01:25 0
2487 cujo     31/01/2009 01:23:12 0
2488 nsomwaru     01/02/2009 20:41:19 0
2489 Squizzy     02/02/2009 22:07:11 36
2490 Mike_D     05/02/2009 15:26:01 0
2491 unckid     07/02/2009 02:19:03 1
2492 von_ooter     08/02/2009 10:15:07 0
2493 davelue     10/02/2009 07:21:29 0
2494 kwanzy     10/02/2009 12:46:50 0
2495 Stalyin     19/02/2009 11:43:26 0
2496 Mama Ronan     19/02/2009 12:42:08 0
2497 Jessica     25/02/2009 09:36:30 0
2498 cbarone     25/02/2009 14:36:10 5
2499 mrgoodfella     26/02/2009 13:01:10 0
2500 Sue_G     05/03/2009 09:09:04 0
2501 mas     05/03/2009 23:39:16 0
2502 Matiz     06/03/2009 17:37:00 0
2503 mariom1986     13/03/2009 10:23:57 0
2504 Jsando     13/03/2009 11:12:10 1
2505 sumosue     16/03/2009 11:52:33 0
2506 jeff_mac     16/03/2009 12:57:44 5
2507 ykevin     17/03/2009 15:06:14 1
2508 Steve F     27/03/2009 09:43:34 0
2509 MattN     27/03/2009 22:05:50 0
2510 bubboteaboy     29/03/2009 01:28:39 0
2511 gorf80     31/03/2009 11:56:52 1
2512 smirkhan     01/04/2009 18:43:03 2
2513 wes_leung     03/04/2009 11:06:46 0
2514 Kenn     06/04/2009 11:31:48 9
2515 Krista     12/04/2009 18:09:03 0
2516 hampaker1     14/04/2009 11:17:34 0
2517 ScottCairns     14/04/2009 12:29:59 0
2518 MelissaL     14/04/2009 14:55:28 0
2519 ash_cl     14/04/2009 20:20:03 0
2520 chisholm_mark     15/04/2009 10:08:40 1
2521 chrism     18/04/2009 15:14:46 0
2522 lisatran     19/04/2009 11:44:50 0
2523 rwong124   20/04/2009 10:37:48 1
2524 krs     20/04/2009 15:35:05 1
2525 ryan     22/04/2009 17:41:11 0
2526 bazza     23/04/2009 07:40:08 0
2527 Pantonio     24/04/2009 10:17:57 0
2528 Giuce     24/04/2009 15:31:04 0
2529 DamianS     27/04/2009 11:50:40 0
2530 kingstondave     27/04/2009 20:18:31 0
2531 JW     28/04/2009 13:16:44 0
2532 Gina     29/04/2009 16:58:15 0
2533 pwarder     30/04/2009 11:11:54 0
2534 sofimofi     30/04/2009 22:57:18 2
2535 MikeyM     02/05/2009 10:22:18 0
2536 SALSALSAL     03/05/2009 20:46:00 15
2537 Tibi     03/05/2009 23:19:46 0
2538 KathyM     04/05/2009 11:38:08 0
2539 Keyladh     04/05/2009 20:49:53 0
2540 buntins     05/05/2009 12:30:48 1
2541 Brooklynoday     05/05/2009 14:10:02 2
2542 alinmardare     05/05/2009 18:24:27 1
2543 sashkak     06/05/2009 13:04:48 0
2544 Vahid     07/05/2009 10:31:42 0
2545 Alex34     07/05/2009 13:34:40 0
2546 mivan     07/05/2009 18:41:53 0
2547 PeterJH     08/05/2009 10:22:11 0
2548 Kupecz     08/05/2009 17:38:06 0
2549 J_Calderone     08/05/2009 18:03:06 0
2550 connolr     09/05/2009 15:20:57 0
2551 marco     10/05/2009 10:39:50 0
2552 nj     10/05/2009 21:24:48 0
2553 nic105     11/05/2009 19:01:53 0
2554 Danielle Murphy     12/05/2009 00:01:38 0
2555 laurenc     12/05/2009 11:25:34 0
2556 Batman13     12/05/2009 14:07:51 0
2557 Benjamin     12/05/2009 14:19:31 0
2558 allali     13/05/2009 06:45:21 0
2559 adicia     13/05/2009 16:47:27 0
2560 James T     13/05/2009 18:44:22 0
2561 nadia_dedominicis     14/05/2009 08:15:53 0
2562 Kyle J     14/05/2009 09:03:49 0
2563 JuanA     14/05/2009 09:23:32 0
2564 seppe     14/05/2009 11:50:22 0
2565 Trep02     14/05/2009 16:37:53 0
2566 tydirium     14/05/2009 17:46:34 0
2567 tomdobson     15/05/2009 09:52:23 0
2568 PeterED     15/05/2009 13:30:07 0
2569 kmandarano     15/05/2009 20:59:17 0
2570 Carlos Cardoso     16/05/2009 01:58:21 1
2571 Marcone     18/05/2009 12:50:15 0
2572 Mo_2009     18/05/2009 13:03:51 0
2573 Amalan Loganathan     18/05/2009 16:49:10 0
2574 jamesten     19/05/2009 16:13:32 0
2575 pacopepe33     19/05/2009 17:34:04 0
2576 RDP     19/05/2009 17:46:11 0
2577 rokutsu     19/05/2009 21:48:15 0
2578 marialoco_9     19/05/2009 23:06:36 0
2579 Bakes     20/05/2009 10:09:51 0
2580 Ivo     20/05/2009 12:00:08 0
2581 Doddin     20/05/2009 13:10:36 0
2582 soccerguy     20/05/2009 13:22:25 0
2583 retrolab     20/05/2009 14:00:16 0
2584 Paul Unett     21/05/2009 09:47:55 0
2585 brookestar     21/05/2009 11:44:09 0
2586 Kate     21/05/2009 12:39:55 0
2587 sjromany     22/05/2009 08:20:24 0
2588 judi     24/05/2009 20:19:02 0
2589 Dile     25/05/2009 09:13:58 6
2590 Mees     25/05/2009 16:06:42 0
2591 Clint     26/05/2009 11:12:21 4
2592 idubbz     26/05/2009 11:51:53 2
2593 miss5     26/05/2009 12:06:01 0
2594 johnny1977     26/05/2009 21:05:19 0
2595 nomers     26/05/2009 21:13:24 0
2596 samtagz     27/05/2009 05:11:04 1
2597 Ammad     27/05/2009 07:09:00 0
2598 romanese     27/05/2009 10:26:37 0
2599 scooby17     27/05/2009 15:47:53 1
2600 laysz     28/05/2009 12:38:05 5
2601 akay     28/05/2009 12:43:08 0
2602 Patricia     28/05/2009 22:55:21 0
2603 omar     29/05/2009 03:18:35 0
2604 Angie     29/05/2009 14:00:44 0
2605 Goalkeeper     31/05/2009 11:16:50 0
2606 alexking44     31/05/2009 16:44:04 1
2607 dragonyte     31/05/2009 16:56:55 0
2608 sharky     01/06/2009 06:50:46 1
2609 Kuro Mamba     01/06/2009 21:38:27 2
2610 smacks     02/06/2009 09:14:22 0
2611 stephen     02/06/2009 12:22:56 1
2612 jlevine     02/06/2009 12:32:48 0
2613 tufan     02/06/2009 13:12:29 0
2614 mgarcia     02/06/2009 20:58:14 0
2615 adriana     02/06/2009 22:29:25 0
2616 dnmoon     05/06/2009 10:46:52 1
2617 padcullen     05/06/2009 21:29:59 2
2618 grossjo     06/06/2009 11:26:44 0
2619 Ddot     07/06/2009 13:10:52 0
2620 robby_d     08/06/2009 14:00:53 0
2621 Hawk     08/06/2009 20:45:08 0
2622 Will Poon     09/06/2009 07:06:12 0
2623 yu271889     10/06/2009 20:00:00 0
2624 Pete     11/06/2009 13:36:41 1
2625 Kentoom     12/06/2009 01:07:19 0
2626 sharebear19     12/06/2009 17:11:49 0
2627 Enan Hoque [Email] 14/06/2009 09:59:21 5
2628 Skndr     16/06/2009 18:20:48 0
2629 thefrancisco     17/06/2009 14:25:33 0
2630 erdav     17/06/2009 17:53:21 0
2631 Scamgrevamyjatakimphen     21/06/2009 20:16:33 0
2632 msulaman     22/06/2009 11:09:01 0
2633 leafgirl     22/06/2009 12:00:51 0
2634 eggplanters     23/06/2009 00:27:21 0
2635 jaff     23/06/2009 00:54:33 0
2636 RichardT     23/06/2009 21:09:20 0
2637 Kareemster     26/06/2009 21:59:39 0
2638 KC5555     28/06/2009 21:09:48 0
2639 DarrylRMSG     29/06/2009 10:43:09 0
2640 JMcCann     30/06/2009 07:04:26 0
2641 Niallio     30/06/2009 09:12:18 0
2642 matteo     30/06/2009 09:18:47 2
2643 Barrettron     30/06/2009 10:25:05 0
2644 tdot_strikers     30/06/2009 11:43:18 0
2645 Allison     02/07/2009 07:41:41 0
2646 Awax     02/07/2009 17:46:09 0
2647 AEK     02/07/2009 18:38:17 0
2648 deidretyrell     04/07/2009 13:54:20 0
2649 Etienne     05/07/2009 21:00:03 0
2650 nb85     06/07/2009 21:34:44 0
2651 yister     07/07/2009 09:42:44 0
2652 akaramarkovic     07/07/2009 09:52:11 0
2653 Kennzer     07/07/2009 21:52:24 13
2654 griffthecat     08/07/2009 09:17:13 0
2655 Manish     08/07/2009 13:15:55 0
2656 Jockey Grace     08/07/2009 14:32:11 0
2657 Vince     09/07/2009 08:30:30 0
2658 robg     09/07/2009 09:02:22 0
2659 Jezzah     10/07/2009 21:18:25 0
2660 mercier     11/07/2009 12:06:11 0
2661 LeoKav     13/07/2009 12:53:40 0
2662 smarshall     14/07/2009 09:53:07 0
2663 SteveD     14/07/2009 14:21:42 0
2664 Hapsjunior     14/07/2009 14:27:53 1
2665 ailish     15/07/2009 15:43:03 0
2666 dbskull     15/07/2009 19:45:28 0
2667 sarzbot     16/07/2009 09:36:07 0
2668 Uthar     17/07/2009 10:34:02 0
2669 torontoarsenalfc     19/07/2009 10:18:41 3
2670 JohnL     19/07/2009 22:25:23 0
2671 MrX     21/07/2009 10:08:35 0
2672 Marina Romantchenko     21/07/2009 15:21:14 0
2673 PhiliNami     21/07/2009 16:31:58 0
2674 Marie     22/07/2009 12:08:09 0
2675 TheDuke     22/07/2009 19:07:58 1
2676 Gacked     22/07/2009 20:45:11 0
2677 Ryan Hood     26/07/2009 12:14:46 0
2678 Grant     27/07/2009 09:56:49 0
2679 Jenniferc     27/07/2009 13:40:02 0
2680 TRIBABE     28/07/2009 12:20:13 0
2681 Munzz     28/07/2009 16:11:00 0
2682 sylio     30/07/2009 22:35:15 0
2683 sandro     02/08/2009 11:55:36 0
2684 steve882     03/08/2009 23:06:48 2
2685 JMO     04/08/2009 10:59:20 0
2686 diziomic     04/08/2009 13:22:03 0
2687 nickT     05/08/2009 14:37:01 0
2688 daveh     06/08/2009 02:06:52 1
2689 mario     08/08/2009 14:44:20 0
2690 Patrick Boileau     09/08/2009 12:24:27 1
2691 bandidod7     12/08/2009 16:06:41 0
2692 Slick7953     17/08/2009 01:40:59 0
2693 Angela G     17/08/2009 16:51:46 0
2694 horst     18/08/2009 13:15:12 0
2695 JennLS     20/08/2009 06:43:47 0
2696 dharmz     20/08/2009 16:45:01 0
2697 sasha_smasha     21/08/2009 10:47:20 0
2698 ashleymonaghan     23/08/2009 20:50:18 0
2699 Kirkronic     23/08/2009 20:59:07 0
2700 cderrick     26/08/2009 19:35:33 0
2701 BeachBum     28/08/2009 10:39:07 0
2702 Bambam     28/08/2009 22:55:17 0
2703 JKL     29/08/2009 13:31:43 0
2704 astarastin     30/08/2009 17:31:09 0
2705 frankie     30/08/2009 22:49:49 0
2706 flash     31/08/2009 14:07:17 0
2707 Gordion     02/09/2009 08:23:02 0
2708 moonbeamdisco     02/09/2009 08:49:57 0
2709 smac3187     04/09/2009 10:11:20 0
2710 ksmit     06/09/2009 19:06:17 0
2711 socca style     10/09/2009 14:56:39 0
2712 floydy     10/09/2009 17:33:51 0
2713 jbs     10/09/2009 17:55:46 0
2714 dirtsquirrel     11/09/2009 08:19:40 0
2715 Als     13/09/2009 20:37:02 1
2716 elsachu     14/09/2009 10:09:56 2
2717 Levi     14/09/2009 13:44:09 1
2718 Porkchops     15/09/2009 09:26:20 0
2719 ekibyougami     15/09/2009 11:55:14 0
2720 Safari     15/09/2009 13:11:57 0
2721 Douglas     16/09/2009 10:30:52 0
2722 loppedis     16/09/2009 11:26:41 0
2723 Meg_B     16/09/2009 12:57:56 0
2724 Jen     17/09/2009 12:14:20 0
2725 emthomas     19/09/2009 13:55:59 0
2726 nstrumi     21/09/2009 08:19:45 0
2727 Laurie0514     21/09/2009 14:07:46 0
2728 Murray     21/09/2009 16:44:38 0
2729 samt     21/09/2009 20:24:49 0
2730 ladysoul     22/09/2009 17:31:40 0
2731 jgilks     22/09/2009 20:43:20 0
2732 neno     23/09/2009 14:41:32 0
2733 mccho     23/09/2009 16:23:28 0
2734 phakimi     24/09/2009 13:43:29 0
2735 Jae Yang     24/09/2009 22:19:37 1
2736 mattrossiter     25/09/2009 13:43:48 0
2737 sarahd     28/09/2009 08:59:52 0
2738 rross   29/09/2009 18:39:12 0
2739 tcorrin     30/09/2009 17:09:21 0
2740 hugeshoesale     30/09/2009 18:33:30 0
2741 siva407     30/09/2009 21:08:30 0
2742 Suri     01/10/2009 08:05:42 1
2743 Sudheer Joshi     04/10/2009 21:06:17 0
2744 leif_erikson     05/10/2009 11:14:59 0
2745 Gofton     05/10/2009 21:47:01 0
2746 clarke99     06/10/2009 15:19:55 0
2747 Sorubi     06/10/2009 22:36:17 0
2748 DeiseDaVE     07/10/2009 19:53:45 0
2749 Joe A     08/10/2009 23:34:54 0
2750 Nima     10/10/2009 18:48:54 0
2751 chino     14/10/2009 08:59:48 0
2752 songdin     14/10/2009 10:09:53 1
2753 tmk     15/10/2009 16:13:43 0
2754 Caitlos     18/10/2009 11:41:57 0
2755 Hannah     18/10/2009 20:18:28 0
2756 march     19/10/2009 17:15:16 0
2757 Marisa     21/10/2009 20:35:03 0
2758 AdrianRuiz     22/10/2009 11:48:36 0
2759 pradeep     23/10/2009 17:18:42 0
2760 llefkos     24/10/2009 20:13:10 0
2761 boddole     25/10/2009 02:07:52 0
2762 dvs     26/10/2009 15:10:53 0
2763 mroc     27/10/2009 15:32:48 0
2764 Sanj     27/10/2009 23:25:39 0
2765 tiger     30/10/2009 10:27:12 0
2766 Torres     03/11/2009 12:24:02 0
2767 dsquizz     03/11/2009 12:28:07 0
2768 suze16     07/11/2009 20:53:43 0
2769 Liz     12/11/2009 12:55:24 0
2770 DannyD     12/11/2009 14:22:02 1
2771 Spiro     20/11/2009 04:12:34 0
2772 jack_burnsss     20/11/2009 21:08:22 0
2773 denise246     22/11/2009 14:46:28 0
2774 janeto     22/11/2009 18:28:45 2
2775 Mohamed Cherif     23/11/2009 23:06:18 0
2776 denonbb     29/11/2009 16:14:20 0
2777 danting     01/12/2009 12:38:02 0
2778 fongstar     06/12/2009 19:13:46 0
2779 aesson     12/12/2009 20:50:04 0
2780 Bellotts     13/12/2009 20:28:10 1
2781 Gilah     15/12/2009 18:33:01 0
2782 fizzydf     24/12/2009 00:11:10 0
2783 Dana_D     26/12/2009 22:20:18 2
2784 khinderks     28/12/2009 16:02:31 0
2785 chewy     29/12/2009 13:50:13 0
2786 JRX     03/01/2010 22:37:48 0
2787 blarg     04/01/2010 13:49:57 0
2788 mwilliamson     04/01/2010 13:51:01 0
2789 Nadia     04/01/2010 16:19:15 0
2790 Marino     04/01/2010 23:38:47 0
2791 luminousorb     05/01/2010 23:53:13 0
2792 coed     06/01/2010 09:53:30 1
2793 ironman_kona     07/01/2010 16:29:53 0
2794 Jackie     08/01/2010 11:36:44 0
2795 pinksilkparasol     08/01/2010 15:38:35 0
2796 Kain     09/01/2010 10:45:45 0
2797 Verns     09/01/2010 19:55:01 0
2798 sbmcmanus     11/01/2010 10:19:12 2
2799 kbastaki     11/01/2010 10:45:45 0
2800 bug     11/01/2010 11:39:01 0
2801 strikenote     11/01/2010 17:33:18 0
2802 Razor1111     12/01/2010 10:34:12 0
2803 rgrossi     13/01/2010 09:56:02 0
2804 l3lain     13/01/2010 14:30:10 1
2805 Copes     13/01/2010 15:55:07 0
2806 Sghasemi     13/01/2010 16:45:53 0
2807 MelPeyaut     14/01/2010 13:39:43 0
2808 mistaho     14/01/2010 17:03:14 0
2809 valeriedodge     17/01/2010 18:04:13 0
2810 sbarnes     17/01/2010 19:33:22 0
2811 djsnare     18/01/2010 12:03:47 0
2812 Frank_Zhao     18/01/2010 12:35:23 0
2813 angiem     18/01/2010 14:45:32 0
2814 Ory     18/01/2010 15:06:44 0
2815 Smalley     18/01/2010 21:09:33 0
2816 bons     19/01/2010 08:37:17 0
2817 pdwyer     19/01/2010 12:36:40 0
2818 Marty78     19/01/2010 15:23:03 0
2819 danielle_regan     19/01/2010 18:07:05 0
2820 tai     19/01/2010 21:40:14 0
2821 alex12     20/01/2010 08:46:30 0
2822 d_umengan     20/01/2010 13:26:30 1
2823 Rutnut     20/01/2010 13:31:02 0
2824 cowvan     20/01/2010 16:38:51 0
2825 brettlazary     21/01/2010 07:32:16 0
2826 Zach Spencer     22/01/2010 11:34:59 0
2827 Mo     22/01/2010 16:44:20 0
2828 PerryWong     24/01/2010 11:34:16 1
2829 jfmorrison     24/01/2010 17:25:04 0
2830 Branko     25/01/2010 11:27:52 0
2831 AndyC     25/01/2010 14:03:48 0
2832 pete evans     26/01/2010 00:58:33 0
2833 JoeT     26/01/2010 16:16:24 0
2834 Carey     27/01/2010 00:40:26 0
2835 ChadT     27/01/2010 08:45:30 0
2836 airwayne     29/01/2010 12:21:54 0
2837 1jshl     29/01/2010 19:28:01 0
2838 leftyjane     29/01/2010 22:16:36 0
2839 atso     31/01/2010 16:54:41 0
2840 Ascott     31/01/2010 18:25:44 0
2841 Ron9aldo     01/02/2010 15:01:25 0
2842 rev1976     01/02/2010 16:37:04 0
2843 stephanieross84     01/02/2010 18:31:37 0
2844 CandyC     04/02/2010 11:20:33 0
2845 Sofia FC     05/02/2010 16:57:13 0
2846 awhite     05/02/2010 17:50:25 0
2847 liverpoolfc8     08/02/2010 09:33:52 0
2848 elisa06     08/02/2010 12:56:23 1
2849 ellisd     08/02/2010 13:09:31 0
2850 RazR     09/02/2010 14:38:44 0
2851 vin     09/02/2010 20:44:04 0
2852 Stephen Schlender     10/02/2010 00:20:39 0
2853 Noradd     10/02/2010 01:01:36 0
2854 izumi     10/02/2010 09:44:14 0
2855 Joanna R     10/02/2010 15:19:49 0
2856 snowboarder20     11/02/2010 21:37:32 0
2857 damon007     12/02/2010 01:20:19 0
2858 Jimrie     17/02/2010 07:30:55 0
2859 crjh     17/02/2010 09:24:05 0
2860 Mary     20/02/2010 23:01:12 0
2861 Income Fund     21/02/2010 17:29:51 0
2862 rpersad     24/02/2010 14:25:33 0
2863 runandgun     25/02/2010 16:14:07 0
2864 Hagane     01/03/2010 11:37:48 0
2865 Antonia08     09/03/2010 12:45:01 0
2866 Rob S [Email] 10/03/2010 08:59:12 11
2867 VladyS     11/03/2010 11:26:44 0
2868 Maddie     11/03/2010 20:35:40 0
2869 LoriG     12/03/2010 19:10:05 0
2870 mss     14/03/2010 17:38:07 0
2871 jashkarian     16/03/2010 14:25:08 0
2872 carlos2364     19/03/2010 15:30:55 0
2873 orchid_kami     20/03/2010 00:09:56 0
2874 emunro5     22/03/2010 09:12:08 0
2875 Paulo Monte     25/03/2010 21:10:04 0
2876 Bossini     26/03/2010 00:20:53 0
2877 Audrey     28/03/2010 21:16:08 0
2878 AGilchrist     30/03/2010 16:23:05 0
2879 Ian Graham     30/03/2010 21:10:24 0
2880 fd2012     01/04/2010 11:52:04 0
2881 Jessiah     01/04/2010 19:01:20 0
2882 pmbrauer   02/04/2010 20:49:15 3
2883 cfreidin     04/04/2010 19:31:12 0
2884 Melifoli     06/04/2010 08:42:23 0
2885 steph     06/04/2010 12:21:07 0
2886 Abdel     06/04/2010 15:36:51 0
2887 leighmcgrath     11/04/2010 18:36:16 0
2888 Laura S     14/04/2010 10:42:29 0
2889 Volleyballer73     14/04/2010 20:06:04 0
2890 superchany     16/04/2010 16:55:58 0
2891 CK     20/04/2010 16:43:27 0
2892 Mac     22/04/2010 23:25:51 1
2893 ram     25/04/2010 08:55:48 0
2894 bw     27/04/2010 11:49:10 0
2895 comandante     28/04/2010 13:19:24 0
2896 tricky     28/04/2010 17:24:47 0
2897 cuji     29/04/2010 12:08:48 0
2898 adornellas     02/05/2010 12:48:45 0
2899 umer     04/05/2010 22:20:14 0
2900 alexstratis     05/05/2010 22:15:37 1
2901 Lianne Henri     09/05/2010 18:18:43 0
2902 Shinwackers     09/05/2010 21:09:19 0
2903 bcmoffat     10/05/2010 14:59:54 0
2904 Parks and Wreck     10/05/2010 23:45:22 0
2905 JamesRicc     11/05/2010 10:20:24 0
2906 swilks     11/05/2010 11:31:23 0
2907